Wildfire 1

operational
NORAD ID: 57764 Int'l Des: 2023-133 Owner: SDA Country: US
LEOCIRCULARPOLAR

About Wildfire 1

Description loading...

Live Position

Loading 3D Globe...

Upcoming Passes

Altitude History

Altitude vs Time

uPlot chart will show altitude changes over time

Two-Line Element Set

1 57764U 23133H 25278.44109029 .00000147 00000-0 11910-3 0 9991
2 57764 80.9968 251.6555 0006406 339.9737 20.1167 13.85672584105773
Epoch: Oct 5, 2025 • Age: 8 hours

Current Status

Altitude 966.9 km
Velocity 7.37 km/s
Sub-Earth Point -69.67°S, 72.15°W
Launch Date Sep 2, 2023
Age 2 years
Type other

Technical Details

Classification Payload
Mass 300.00 kg
Dry Mass 300.00 kg
Total Mass 300.00 kg
Length 1.00 m
Diameter 0.40 m
Span 2.50 m
Shape Box + 2 panels
Manufacturer TYVAK/LMSSD
Bus Type Mavericks
Phase Status In Orbit
Owner/State SDA/US

Large Constellations

Loading constellations...